[Date Prev][Date Next][Thread Prev][Thread Next][Date Index][Thread Index]

[jamsat-news:1305] jas2info #197



========================   最新情報   ==============================

        Last updated :Sat.22Jul.2000  19:20 (JST) #197

====================================================================
   
  1)アマチュア通信衛星情報 FOシリーズの軌道要素、テレメトリ、
   QSOの状況等をまとめてみました.
   
   FO−29の7月22日(土)のテレメトリは11:34(JST)のパスでは
  アナログ運用でした。JARLのテレホンサービスNo.177によると
  スケジュールではデジトーカ運用であるが地上混信が激しくプログラムアップロード
  できずに、アナログ運用を続けているとのことです。衛星通信周波数は空けておきま
  しょう。これまでの受信したCWテレメトリを掲載しておきます.

 AS19402C1  22Jul2000
 11:34-11:46(JST)

 HI HI AE C7 88 55 00 2A 55 AC 09 53 52 3E 72 60 93 90 B0 87 BF BE BE BC BB 
 HI HI AE C7 88 55 00 2A 55          87 65 84 60 93 90 B0 76 BF BE BE BC BB 
 HI HI AE C7 88 55 00 2A 55 AD 09                      B0 52 BF BE BD BC BB 
 HI HI AE C7 88 55 00 29 55 AD 09 76 7F 9F 74 4C 95 92 B0 97 BF BE BD BC BB 
 HI HI AE C7 88 55 77 2A 55 AE 09 91 78 73    60 93 91 B0 6E BF BE BD BC BB 
 HI HI AE C7 88 55 00 2A 55 AE 09 7A 74 3D 81 60 93 91 B0 7D BF BE BD BC BB 
 HI HI AE C7 88 55 00 2A 54 AF 09 68 4D 3E 82 60 93 91 B0 82 BF BD BD BC BB 
 HI HI AE C7 86 55 00 5A 54 AF 09 6F 4C 74 79 60 93 91 B0 8A BF BD BD BC BB 
 HI HI AE C7 88 55 00 2A 54 AF 09 6F 7B 9E 7E 60 94 91 B0 7F BF BD BC BC BB 
 HI HI AE C7 88 55 00 2A 54 AF 09 66 9E       60 94 91 B0 7F BF BD BC BC BB
 HI HI AE C7 88 55 00 2A 54 AF 08    96 5A 82 60 93 91 B0    BF BC BC BC BB 

 AS19361C1  19JUL2000
 10:45-11:03(JST)

 HI HI AE C7 88 55 1D 79 1A 0D 01 76 65 64 71 60 93 91 B0 98 BB BA BC BA B7 
 HI HI AE 07 88 55 1D 79 1A 0D 01 76 67 59 4B 60 95 92 B0 82 BB BA BC BA B7 
 HI HI AE 07 88 55 1D 79 1A 0D 01 76 45 62 75 60 92 91 B0 98 BB BA BC BA B7 
 HI HI AE C7 87 55 1D 79 1A 0D 01 76 45 72 67 51 95 92 B0 8A BB BA BC BA B7 
 HI HI AE 07 88 55 1D 79 1A 0D 01 76 6B 6F 5F 56 94 91 9F 91 BB BA BB BA B7 
 HI HI AE C7 88 55 1D 79 1A 0D 01 76 89 55 64 60 92 90 9E 89 BA BA BB BA B7 
 HI HI AE 07 88 55 1D 79 1A 0D 01 76 76 44 72 60 94 91 B0 6C BB BA BB HT B7 
 HI HI AE C7 88 55 1D 79 1A 0D 01 76 4B 55 80 60 92 91 A0 74 BB BA BB B9 B7 
 HI HI AE C7 88 55 1D 78 1A 0D 01 76 41 82 6E 60 93 91 B0 8A BA BA BB B9 B7 
 HI HI AE C7 88 55 1D 79 1A 0D 01 76 78 81 6A 60 94 92 A0 90 BA BT BB B9 B7 
 HI HI AE C7 88 55 1D 79 1A 0D 01 76 93 83 61 60 93 91 B0 97 BA B9 BB B9 B7 
 HI HI AE C7 8G 55 1D 79 1A 0D 01 76 92 50 74 60 93 91 B0 97 BA B9 BB B9 B7
 HI HI AE C7 88 55 1D 79 1A 0D 01 76      60 95 92 B0 97 BA B9 BB B9 B7
 HI HI AE C7 88 55 1D 78 1A 0D 01 76 83 B1 69 60 94 92 B0 95 BA B9 BB B9 B7 
 HI HI AE C7 88 55 1D 79 1A 0D 01 76 A6 86 7A 60 93 91 B0 92 BA B9 BA B9 B7 
 HI HI AE C7 88 55 1D 79 1A 0D 01 76 98 4C 90 60 95 93 B0 7D BA B8 BA B9 B7 
 HI HI AE C7 88 55 1D 79 1A 0D 01 76 60 38 88 60 93 91 B0 74 BA B8 BA B9 B7 
 HI HI AE C7 88 55 1D 79 1A 0D 01 76 3C 65 84 60 92 92 A1 8A BA B8 B9 B9 B7 
 HI HI AE C7 88 55 1D 79 1A 0D 01 76 4D AD 6A 60 94 91 B0 86 BA B8 B9 B9 B7
 HI HI AE C7 88 55 1D 79 1A 0D 01 76 69 BD 6C 60 94 91 B0 8F BA B8 B9 B9 B7 

 AS19347C1  18Jul2000
 9:57-10:13(JST)

 HI HI AE C7 88 55 1D 79 1A 0D 01 76 56 7A 77 60 93 91 B0 89 BD BD BE BC BB 
 HI HI AE 07 88 55 1D 79 1A 0D 01 76 7E 73 6B 60 93 91 B0 5E BD BD BE BC BB 
 HI HI AE C7 88 55 1D 79 1A 0D 01 76 5A    7D 60 93 91 B0 97 BD BC BD BB BB
 HI HI AE C7 88 55 1D 79 1A 0D 01 76 40 60 70 60 95 92 B0 80 BD BC BD BC BB 
 HI HI AE K7 88 55 1D 79 1A 0D 01 76 4C 88 81 60 93 91 B0 75 BD BC BD BC BB 
 HI HI AE C7 88 55 1D 79 1A 0D 01 76 72 9F 78 60 93 91 B0    BD BC BD BC BB 
 HI HI AE C7 88 55 1D 79 1A 0D 01 76    8E    60 93 91 B0    BD BC BD BC BB 
 HI HI AE C7 88 55 1D 79 1A 0D 01 76 75 57 7C 60 93 90 B0 7D BD BC BD BC BB 
 HI HI AE C7 88 55 1D 79 1A 0D 01 76 47 46 7B 60 94 93 B0 7B BD BB BD BC BB 
 HI HI AE C7 88 55 1D 79 1A 0D 01 76 4D    7A 60 93 91 B0 76 BD BB BD BC BB
 HI HI AE C7 88 55 1D 79 1A 0D 01 76 70 85    60 93 91 B0 5B BD BB BD BC BB 
 HI HI AE C7 88 55 1D 79 1A 0D 01 76 97 91 7E 60 93 91 B0 96 BC B6 BD BC BB 
 HI HI AE C7 88 55 1D 79 1A 0D 01 76 88 68 88 60 93 91 B1 84 BC BB BC BC BB 
 HI HI AE C7 88 55 1D 79 1A 0D 01 76 54 46 8B 60 93 91 B0 57 BC BB BC BC BB
 HI HI AE C7 88 55 1D 79 1A 0D 01 76 39 49 88 60 93 91 B1 7C BC BB BC BC BB 
 HI HI AE C7 88 55 1D 79 1A 0D 01 76 9D 6E 8F 60 92 90 B0 91 BC BA BC BC BB 
 HI HI AE C7 88 55 1D 79 1A 0D 01 76 A0 6F 8F 60 93 91 B0 7C BC BA BC BC BB 
 HI HI AE C7 88 55 1D 79 1A 0D 01 76 5E 6E 86 60 93 91 B0 6D BC BA BC BC BB 
 HI HI AE C7 88 55 1D 79 1A 0D 01 76 2D 4E 86 60 92 90 B0 82 BC BA BB BC BB 
 HI HI AE C7 88 55 1D 79 1A 0D 01 76 57 33 7E 60 93 91 B0 7F BC BA BB BC BB 
 HI HI AE C7 88 55 1D 79 1A 0D 01 76 A0 37 80 60 92 90 B0 71 BC B9 BB BB BB 
 HI HI AE C7 88 55 1D 79 1A 0D 01 76 A7 5B  

 AS19334C1   17Jul2000
 11:05-11:07(JST)

 HI HI AE C7 88 55 1D 79 1A 0D 01 76 8E 5F 78 60 95 93 B0 66 BC BA BA BB BA 
 HI HI AE C7 88 55 1D 79 1A 0D 01 76 96 8E 77 4D 95 93 B0 76 BC B9 BA BB BA 
 HI HI AE C7 88 55 1D 79 1A 0D 01 76 AF 66 8B 60 93 91 B0 78 BC B9 BA BB BA

 
 ------------------------ FO-29の軌道要素 ------------------------------        
 
  ■ 軌道要素1:「jamsat−keps:1013」より         
          SB KEPS @ AMSAT  $ORB00203.N
          2Line Orbital Elements 00203.AMSAT

 HR AMSAT ORBITAL ELEMENTS FOR AMATEUR SATELLITES IN NASA FORMAT
 FROM WA5QGD FORT WORTH,TX July 21, 2000
 SEND SUBSCRIBE/UNSUBSCRIBE TO majordomo@amsat.org ONLY
 BID: ORB00203.N

 FO-29
 1 24278U 96046B   00201.73817915 -.00000058  00000-0 -25195-4 0 03740
 2 24278 098.5856 105.3182 0351602 142.6527 219.9619 13.52727384193697

 ■ 軌道要素2:「jamsat−keps:1014」より                    
         SB KEPS @ AMSAT  $ORB00203.O
         Orbital Elements  00203.OSCAR

 HR AMSAT ORBITAL ELEMENTS FOR OSCAR SATELLITES
 FROM WA5QGD FORT WORTH,TX July 21, 2000
 SEND SUBSCRIBE/UNSUBSCRIBE TO majordomo@amsat.org ONLY
 BID: ORB00203.O
 TO ALL RADIO AMATEURS BT
 
  Satellite: FO-29
 Catalog number: 24278
 Epoch time:      00201.73817915
 Element set:    0374
 Inclination:      098.5856 deg
 RA of node:       105.3182 deg
 Eccentricity:    0.0351602
 Arg of perigee:   142.6527 deg
 Mean anomaly:     219.9619 deg
 Mean motion:   13.52727384 rev/day
 Decay rate:       -5.8e-07 rev/day^2
 Epoch rev:           19369
 Checksum:              329

-------------------  FO-29(JAS-2)のテレメトリに関する情報  ----------------------
 
 2)7月22日(土)のテレメトリの最初の行の変換例です.

 AS19402C1  22Jul2000
 11:34-11:46(JST)

 HI HI AE C7 88 55 00 2A 55 AC 09 53 52 3E 72 60 93 90 B0 87 BF BE BE BC BB 

 テレメトリ 内   容	    換算値	単 位  
 3C	磁気センサーZ軸=	40196.1	[nT]
 3D	磁気センサX軸	=	30392.2	[nT]
 4A	太陽電池発生電流=	 1117.7	[mA]
 4B	B充放電電流	=	 -118.4	[mA]
 4C	B端子電圧	=	   15.8	[V]
 4D	B中間端子電圧	=	    6.9	[V]
 5A	バス電圧 	=	   17.3	[V]
 5B	JTA送信電力	=	  779.4	[mW]
 5C 	構体温度1	=	    7.7	[℃]
 5D	構体温度2	=	    8.1	[℃]
 6A	構体温度3	=	    8.1	[℃]
 6B	構体温度4	=	    8.9	[℃]
 6C	Bセル温度	=	    9.3	[℃]
 
 * OSはWindows 2000,Office 2000 にて計算処理.
 
 ===========================  FO-29(ふじ3号)のQSO情報等 ======================
   
 3) [jamsat-bb:] 
   
 ===============================================================================
   4)JARL のホームページに運用予定が記載されていましたのでご紹介します.
       ( http://www.jarl.or.jp/Japanese/3_Fuji/new/uy.htm )

        ■ ふじ3号/FOー29/JAS-2 ■  
   
     *** 運用予定について *** 

 ☆☆ デジトーカ運用を7月から運用 ☆☆  
  
 ※7月20日 〜 8月31日 デジトーカ運用

  ※ 7月20日から8月まで,新音声データによるデジトーカ運用を
    行いますので,ご期待ください。
  なお,デジトー カ運用期間中,毎週水曜日に衛星の運用管理を行うため,
  アナログ系運用を実施致します。
  但し,混信等の影響により切り替えることができない場合は,
  デジトーカ運用を連続的に行うこうともありますので,予めご了承願います。 

 最新の情報はテレホンサービス(03−3942−1000)をお聞きください。  
 以後の運用につきましては8月下旬にお知らせいたします。
  
-----------------------    FO−20(JAS-1b)道要素   -------------------------
  5)
  ■ 軌道要素1 :出典はFO-29「ふじ3号」に同じ.
  
  FO-20
 1 20480U 90013C   00201.89141195 -.00000067  00000-0 -72126-4 0 02741
 2 20480 099.0580 326.1746 0540818 341.2969 016.8922 12.83274511489470
 
  ■ 軌道要素2 :出典はFO−29「ふじ3号」に同じ.
               
  Satellite: FO-20
 Catalog number: 20480
 Epoch time:      00201.89141195
 Element set:    0274
 Inclination:      099.0580 deg
 RA of node:       326.1746 deg
 Eccentricity:    0.0540818
 Arg of perigee:   341.2969 deg
 Mean anomaly:     016.8922 deg
 Mean motion:   12.83274511 rev/day
 Decay rate:       -6.7e-07 rev/day^2
 Epoch rev:           48947
 Checksum:              309

 --------------------------------------------------------------------------------
 
         ■ ふじ2号/FO−20/JAS-1b ■      
            
          「ふじ2号」 現況                                                                                  
             
   JAS-1b(ふじ2号)のCWテレメトリ信号に,1997年10月12日12時(JST)の
 日本上空通過時,3桁の数字が繰り返されるはずが3個の長音の繰り返しとなっているという
 異常が発見されました。この不具合は次の通過時からは回復していましたが13日15時20分の
 通過時に再び観測されました。現在はA0の送信が続いています。衛星のアナログ系中継モード
 動作は異常が無く,正常時のテレメトリ内容からは衛星の動作に異常は認められません。従って,
 直ちに衛星のミッションに影響することは無いと予想されますので,当面はアナログ系中継
 モードを継続します。衛星は既に打ち上げてから7年8ヶ月を経ておりますので,今後は監視を
 強化する予定です。アマチュア各位のレポートをお待ちします。
 -------------------------------------------------------------------------------- 
  1997年10月14日 00時35分 確認のテレメトリ音 151 KB (A0) 
  1997年10月14日 11時10分 確認のテレメトリ音 216 KB (異常キーイング) 

  以上 JARLのホ−ムページの http://www.jarl.or.jp/Japanese/3_Fuji/new/fuji.htm

===================== FO-20 ふじ2号 のテレメトリ観測結果 ====================

   6月3日(土)の14:15(JST)のパスの観測結果では以前観測した結果よりも変動のない
 単一周波数でドップラー効果で周波数がずれていくのみの状態に戻っておりました。
                                         
   =============   JAS-2 (ふじ3号)と現在までの情報   ===========
  
  A.電話によるふじ3号の運用情報
      社団法人日本アマチュア連盟によるサービス
           TEL .   03− 3942 − 1000
  B.アマチュア無線FAXサービス
      JARLによるふじ3号の軌道情報(オービットカレンダー)
         FAX No.  03− 3233 −0055
  C.WWWブラウザで情報を簡単に見れる人のためにJAS−2
     ふじ3号の衛星としての運用されるまでの名前)の概要、打ち上げ
     までの状況、運用中における状況を説明したホームページを紹介し
     ておきます.
     社団法人日本アマチュア無線連盟(JARL)のホームページ

          http://www.jarl.or.jp/Japanese/3_Fuji/jasmenu.htm
 
     宇宙開発事業団(NASDA)ホームページ 
          http://www.nasda.go.jp/
         打上げ衛星 :地球観測プラットフォーム技術衛星(ADEOS) 
                       アマチュア衛星3号(JAS-2)
          http://yyy.tksc.nasda.go.jp/Home/Press/Press-j/jas-2_j.html        

  D.JAMSATによる軌道情報の活用
        JAMSATのホームページまたはjamsat−kepsの軌道要素より
      衛星の軌道情報を得る.
     JAMSATホームページ
               URL    http://www.jamsat.or.jp
       上記ホームページでは各地で行われるアマチュア通信衛星に関する
      ミューティングのお知らせや世界のアマチュア衛星に関する情報が
      満載されています.
 ========================================================================  
     JAMSATのメンバーのご協力によりJH6MME(高山 秀造)が
    執筆・編集を担当しております.ご指摘の意見、疑問やこのようにしたら
    というアイデアがありましたら小さなことでもかまいませんので気軽に下
    記アドレスまでご連絡ください.jamsat−newsからjas2
    infoへの転載をJH4PHW局坂井さんに担当して頂いております.  
                  E-mail : jh6mme@jamsat.or.jp : jh4phw@jamsat.or.jp
 ===============================   END  ===============================